Simultaneous Nadir Overpasses (SNOs) Predictions

Prediction of SNOs between GOES-17 and METOP-B Satellite Orbit:

Table of predicted SNOs for the next 14.0 days since TLE Epoch: 4/1/2023
Index Date Time (GOES-17) GOES-17 Lat,Lon METOP-B Lat,Lon Distance(km) Time Diff (sec)
1 04/01/2023 16:19:03 -0.00,-104.77 -0.60,-101.99 316.78 80
2 04/03/2023 04:38:04 0.00,-104.74 -0.42,-106.59 210.82 80
3 04/04/2023 04:14:46 0.00,-104.75 0.71,-101.60 358.18 80
4 04/05/2023 16:33:38 -0.00,-104.79 0.33,-106.17 158.03 80
5 04/06/2023 16:15:40 -0.01,-104.79 -0.81,-101.18 411.17 80
6 04/08/2023 04:34:41 0.01,-104.76 -0.19,-105.79 116.27 80
7 04/09/2023 04:11:21 0.01,-104.76 0.89,-100.79 452.57 80
8 04/10/2023 16:30:14 -0.01,-104.79 0.13,-105.35 64.31 80
9 04/13/2023 04:31:16 0.00,-104.75 -0.02,-104.97 23.64 80
